Columbus, NE

9:12 PM CDT on March 24, 2017 (GMT -0500)
Columbus Municipal

Weather History for KOLU - January, 2014

Change the Weather History Date:

Saturday, January 4, 2014

  Actual Average Record
Temperature  
Mean Temperature 22 °F -  
Max Temperature 37 °F 26 °F 57 °F (2007)
Min Temperature 6 °F 9 °F -17 °F (1959)
Degree Days  
Heating Degree Days 44    
Moisture  
Dew Point 11 °F    
Average Humidity 66    
Maximum Humidity 80    
Minimum Humidity 56    
Precipitation  
Precipitation 0.00 in - - ()
Sea Level Pressure  
Sea Level Pressure 29.97 in    
Wind  
Wind Speed 13 mph (NNW)    
Max Wind Speed 30 mph    
Max Gust Speed 38 mph    
Visibility 10 miles    
Events      
Averages and records for this station are not official NWS values.
T = Trace of Precipitation, MM = Missing Value Source: NWS Daily Summary

Daily Weather History Graph

Daily Weather History Graph

Search for Another Location

Airport or City:

Trip Planner

Search our weather history database for the weather conditions in past years. The results will help you decide how hot, cold, wet, or windy it might be!

Date:

Astronomy

Jan. 04, 2014 Rise Set
Actual Time 7:55 AM CST 5:13 PM CST
Civil Twilight 7:24 AM CST 5:44 PM CST
Nautical Twilight 6:50 AM CST 6:18 PM CST
Astronomical Twilight 6:16 AM CST 6:52 PM CST
Moon 9:59 AM CST (1/4) 9:37 PM CST (1/4)
Length of Visible Light 10h 19m
Length of Day
9h 17m
Waxing Crescent, 15% of the Moon is Illuminated
Jan 4
Waxing Crescent
Jan 7
First Quarter
Jan 15
Full
Jan 23
Last Quarter
Jan 30
New

Hourly Weather History & Observations

Time (CST) Temp. Windchill Dew Point Humidity Pressure Visibility Wind Dir Wind Speed Gust Speed Precip Events Conditions
12:15 AM 32.0 °F 28.7 °F 24.8 °F 75% 29.61 in 10.0 mi West 3.5 mph - N/A   Partly Cloudy
12:35 AM 30.2 °F 26.7 °F 24.8 °F 80% 29.62 in 10.0 mi West 3.5 mph - N/A   Partly Cloudy
12:55 AM 33.8 °F 30.8 °F 26.6 °F 75% 29.63 in 10.0 mi West 3.5 mph - N/A   Mostly Cloudy
1:15 AM 33.8 °F 29.6 °F 26.6 °F 75% 29.64 in 10.0 mi SW 4.6 mph - N/A   Overcast
1:35 AM 33.8 °F 30.8 °F 26.6 °F 75% 29.64 in 10.0 mi West 3.5 mph - N/A   Overcast
1:55 AM 33.8 °F - 26.6 °F 75% 29.64 in 10.0 mi Calm Calm - N/A   Overcast
2:15 AM 30.2 °F - 24.8 °F 80% 29.64 in 10.0 mi Calm Calm - N/A   Scattered Clouds
2:35 AM 32.0 °F - 26.6 °F 80% 29.65 in 10.0 mi Calm Calm - N/A   Clear
2:55 AM 32.0 °F 28.7 °F 26.6 °F 80% 29.67 in 10.0 mi WSW 3.5 mph - N/A   Mostly Cloudy
3:15 AM 32.0 °F 26.4 °F 26.6 °F 80% 29.68 in 10.0 mi West 5.8 mph - N/A   Partly Cloudy
3:35 AM 30.2 °F - 24.8 °F 80% 29.69 in 10.0 mi Calm Calm - N/A   Partly Cloudy
3:55 AM 37.4 °F 25.6 °F 28.4 °F 70% 29.71 in 10.0 mi NW 26.5 mph 31.1 mph N/A   Mostly Cloudy
4:15 AM 37.4 °F 26.1 °F 28.4 °F 70% 29.72 in 10.0 mi NNW 24.2 mph 31.1 mph N/A   Scattered Clouds
4:35 AM 37.4 °F 25.6 °F 26.6 °F 65% 29.73 in 10.0 mi NNW 26.5 mph 33.4 mph N/A   Partly Cloudy
4:55 AM 35.6 °F 24.2 °F 26.6 °F 70% 29.76 in 10.0 mi NNW 21.9 mph 32.2 mph N/A   Scattered Clouds
5:15 AM 33.8 °F 21.9 °F 24.8 °F 70% 29.76 in 10.0 mi NNW 21.9 mph 38.0 mph N/A   Mostly Cloudy
5:35 AM 30.2 °F 15.2 °F 21.2 °F 69% 29.78 in 10.0 mi NNW 29.9 mph 35.7 mph N/A   Overcast
5:55 AM 28.4 °F 13.5 °F 19.4 °F 69% 29.82 in 10.0 mi NNW 26.5 mph 35.7 mph N/A   Mostly Cloudy
6:15 AM 26.6 °F 12.4 °F 17.6 °F 69% 29.85 in 10.0 mi North 21.9 mph 29.9 mph N/A   Overcast
6:35 AM 24.8 °F 10.0 °F 15.8 °F 69% 29.85 in 10.0 mi NNW 21.9 mph 33.4 mph N/A   Overcast
6:55 AM 24.8 °F 8.7 °F 15.8 °F 69% 29.88 in 10.0 mi NNW 26.5 mph 31.1 mph N/A   Overcast
7:15 AM 21.2 °F 4.5 °F 10.4 °F 63% 29.90 in 10.0 mi North 24.2 mph 38.0 mph N/A   Mostly Cloudy
7:35 AM 19.4 °F 2.5 °F 8.6 °F 63% 29.90 in 10.0 mi North 23.0 mph 27.6 mph N/A   Partly Cloudy
7:55 AM 19.4 °F 4.5 °F 8.6 °F 63% 29.92 in 10.0 mi North 17.3 mph 26.5 mph N/A   Clear
8:15 AM 19.4 °F 3.2 °F 8.6 °F 63% 29.90 in 10.0 mi North 20.7 mph 25.3 mph N/A   Clear
8:35 AM 19.4 °F 5.0 °F 8.6 °F 63% 29.94 in 10.0 mi North 16.1 mph 25.3 mph N/A   Clear
8:55 AM 17.6 °F 1.7 °F 10.4 °F 73% 29.92 in 10.0 mi North 18.4 mph 26.5 mph N/A   Clear
9:15 AM 19.4 °F 4.5 °F 10.4 °F 68% 29.94 in 10.0 mi North 17.3 mph 27.6 mph N/A   Clear
9:35 AM 19.4 °F 5.5 °F 10.4 °F 68% 29.97 in 10.0 mi North 15.0 mph 26.5 mph N/A   Partly Cloudy
9:55 AM 19.4 °F 2.5 °F 8.6 °F 63% 30.00 in 10.0 mi North 23.0 mph 28.8 mph N/A   Partly Cloudy
10:15 AM 17.6 °F 0.5 °F 8.6 °F 68% 30.01 in 10.0 mi North 21.9 mph 28.8 mph N/A   Clear
10:35 AM 17.6 °F 2.7 °F 6.8 °F 63% 30.04 in 10.0 mi NNW 16.1 mph 27.6 mph N/A   Clear
10:55 AM 17.6 °F 3.2 °F 6.8 °F 63% 30.07 in 10.0 mi NNW 15.0 mph - N/A   Mostly Cloudy
11:15 AM 17.6 °F 1.7 °F 6.8 °F 63% 30.05 in 10.0 mi North 18.4 mph - N/A   Mostly Cloudy
11:35 AM 17.6 °F 2.2 °F 6.8 °F 63% 30.05 in 10.0 mi North 17.3 mph 23.0 mph N/A   Partly Cloudy
11:55 AM 17.6 °F 1.7 °F 6.8 °F 63% 30.05 in 10.0 mi North 18.4 mph 23.0 mph N/A   Partly Cloudy
12:15 PM 17.6 °F 1.3 °F 6.8 °F 63% 30.04 in 10.0 mi North 19.6 mph 26.5 mph N/A   Scattered Clouds
12:35 PM 17.6 °F 2.7 °F 8.6 °F 68% 30.02 in 10.0 mi North 16.1 mph 21.9 mph N/A   Mostly Cloudy
12:55 PM 17.6 °F 1.7 °F 8.6 °F 68% 30.00 in 10.0 mi North 18.4 mph - N/A   Partly Cloudy
1:15 PM 19.4 °F 4.1 °F 8.6 °F 63% 30.02 in 10.0 mi NNW 18.4 mph 24.2 mph N/A   Scattered Clouds
1:35 PM 19.4 °F 4.5 °F 6.8 °F 58% 30.03 in 10.0 mi North 17.3 mph 21.9 mph N/A   Scattered Clouds
1:55 PM 19.4 °F 5.0 °F 8.6 °F 63% 30.04 in 10.0 mi North 16.1 mph - N/A   Partly Cloudy
2:15 PM 19.4 °F 4.5 °F 8.6 °F 63% 30.04 in 10.0 mi North 17.3 mph 21.9 mph N/A   Clear
2:35 PM 19.4 °F 5.0 °F 8.6 °F 63% 30.04 in 10.0 mi North 16.1 mph 20.7 mph N/A   Clear
2:55 PM 21.2 °F 6.4 °F 8.6 °F 58% 30.04 in 10.0 mi North 18.4 mph 21.9 mph N/A   Clear
3:15 PM 21.2 °F 7.3 °F 8.6 °F 58% 30.06 in 10.0 mi North 16.1 mph 21.9 mph N/A   Clear
3:35 PM 21.2 °F 7.8 °F 8.6 °F 58% 30.06 in 10.0 mi North 15.0 mph 19.6 mph N/A   Clear
3:55 PM 21.2 °F 8.3 °F 8.6 °F 58% 30.07 in 10.0 mi North 13.8 mph 20.7 mph N/A   Clear
4:15 PM 21.2 °F 7.3 °F 8.6 °F 58% 30.06 in 10.0 mi North 16.1 mph 20.7 mph N/A   Clear
4:35 PM 19.4 °F 5.5 °F 10.4 °F 68% 30.08 in 10.0 mi North 15.0 mph 18.4 mph N/A   Clear
4:55 PM 19.4 °F 5.0 °F 10.4 °F 68% 30.08 in 10.0 mi North 16.1 mph 19.6 mph N/A   Partly Cloudy
5:15 PM 19.4 °F 5.5 °F 8.6 °F 63% 30.09 in 10.0 mi North 15.0 mph - N/A   Partly Cloudy
5:35 PM 17.6 °F 2.7 °F 8.6 °F 68% 30.09 in 10.0 mi North 16.1 mph 19.6 mph N/A   Clear
5:55 PM 17.6 °F 2.7 °F 6.8 °F 63% 30.10 in 10.0 mi North 16.1 mph 26.5 mph N/A   Clear
6:15 PM 17.6 °F 1.3 °F 6.8 °F 63% 30.10 in 10.0 mi North 19.6 mph 24.2 mph N/A   Clear
6:35 PM 17.6 °F 0.9 °F 6.8 °F 63% 30.12 in 10.0 mi North 20.7 mph 25.3 mph N/A   Clear
6:55 PM 17.6 °F 3.2 °F 6.8 °F 63% 30.13 in 10.0 mi North 15.0 mph 26.5 mph N/A   Partly Cloudy
7:15 PM 15.8 °F 0.9 °F 5.0 °F 62% 30.14 in 10.0 mi North 15.0 mph 21.9 mph N/A   Partly Cloudy
7:35 PM 15.8 °F -2.3 °F 3.2 °F 58% 30.15 in 10.0 mi North 23.0 mph 27.6 mph N/A   Clear
7:55 PM 15.8 °F 1.4 °F 3.2 °F 58% 30.18 in 10.0 mi North 13.8 mph 25.3 mph N/A   Clear
8:15 PM 14.0 °F -2.5 °F 3.2 °F 62% 30.18 in 10.0 mi North 17.3 mph 31.1 mph N/A   Clear
8:35 PM 12.2 °F -5.3 °F 3.2 °F 67% 30.18 in 10.0 mi North 18.4 mph 24.2 mph N/A   Clear
8:55 PM 12.2 °F -3.1 °F 1.4 °F 62% 30.19 in 10.0 mi North 13.8 mph - N/A   Clear
9:15 PM 10.4 °F -6.6 °F -0.4 °F 62% 30.20 in 10.0 mi North 16.1 mph 26.5 mph N/A   Clear
9:35 PM 10.4 °F -5.4 °F -2.2 °F 57% 30.20 in 10.0 mi North 13.8 mph 23.0 mph N/A   Clear
9:55 PM 8.6 °F -8.3 °F -2.2 °F 62% 30.21 in 10.0 mi North 15.0 mph 24.2 mph N/A   Clear
10:15 PM 8.6 °F -10.0 °F -4.0 °F 57% 30.22 in 10.0 mi North 18.4 mph 27.6 mph N/A   Clear
10:35 PM 8.6 °F -10.0 °F -4.0 °F 57% 30.23 in 10.0 mi North 18.4 mph 25.3 mph N/A   Clear
10:55 PM 8.6 °F -8.9 °F -4.0 °F 57% 30.24 in 10.0 mi North 16.1 mph 20.7 mph N/A   Clear
11:15 PM 8.6 °F -7.0 °F -4.0 °F 57% 30.25 in 10.0 mi North 12.7 mph - N/A   Clear
11:35 PM 6.8 °F -9.3 °F -5.8 °F 56% 30.25 in 10.0 mi North 12.7 mph - N/A   Clear
11:55 PM 6.8 °F -8.6 °F -4.0 °F 61% 30.26 in 10.0 mi North 11.5 mph - N/A   Clear